Lapse_Rate
5.4 5.3 5.2 5.2 5.2 5.4 5.8 5.8 5.8 5.8 6.2 5.8 5.5 5.7 5.5 6.0 5.9 5.6 5.7 5.8 5.1 5.1 5.1 5.1 5.3 5.3 5.4 5.5 5.7 5.8 5.6 5.6 5.7 5.8 6.0 6.0 6.1 6.1 6.2 6.4 6.3 6.2 6.2 6.2 6.1 6.0 6.0 6.2 6.3
5.3 5.1 5.0 5.1 5.1 5.4 6.0 6.3 6.3 6.0 5.6 5.5 4.9 5.3 5.7 5.9 5.9 6.0 6.1 5.1 5.0 5.2 5.2 5.2 5.3 5.3 5.4 5.5 5.7 5.7 5.6 5.6 5.8 5.9 6.0 6.0 5.9 6.0 6.2 6.3 6.3 6.3 6.2 6.1 6.1 6.0 6.0 5.9 6.0
5.4 5.1 5.1 5.1 5.5 5.6 6.1 6.5 6.5 5.9 5.4 5.1 5.3 5.1 5.6 5.8 5.8 6.1 5.7 5.4 5.3 5.1 5.2 5.2 5.3 5.4 5.4 5.5 5.6 5.7 5.5 5.6 5.8 5.9 6.1 5.9 5.9 6.0 6.1 6.1 6.1 6.2 6.2 6.1 6.1 6.0 5.9 5.9 6.0
5.1 5.4 5.4 5.5 5.5 6.0 6.5 6.6 6.2 6.0 5.3 5.6 5.4 5.2 5.5 5.2 5.7 6.0 5.6 5.7 5.5 5.3 5.3 5.3 5.4 5.6 5.5 5.6 5.5 5.5 5.5 5.7 5.8 5.8 5.8 5.8 5.9 6.1 6.0 6.0 6.1 6.0 6.0 6.1 6.1 6.1 6.1 6.0 5.9
5.0 5.2 5.0 5.0 6.1 6.9 7.0 6.8 6.5 6.1 5.5 5.4 5.2 4.9 5.3 4.8 5.4 5.8 5.7 5.5 5.5 5.4 5.3 5.3 5.4 5.6 5.6 5.6 5.5 5.5 5.5 5.7 5.8 5.8 5.9 5.8 5.8 5.9 5.8 5.9 6.0 5.9 6.1 6.1 6.0 6.0 6.0 6.0 6.0
5.0 5.5 6.1 6.4 6.8 7.9 7.0 6.8 6.4 5.5 5.6 5.0 5.2 5.2 5.2 4.8 5.4 5.7 5.5 5.6 5.4 5.3 5.2 5.4 5.5 5.6 5.6 5.6 5.5 5.5 5.7 5.7 5.9 6.0 5.9 5.8 5.8 5.8 5.8 6.0 6.0 6.0 5.9 5.9 5.9 6.0 6.1 6.0 5.9
5.7 5.3 5.8 5.9 7.5 7.6 7.2 6.8 6.6 6.4 5.5 4.9 5.0 5.7 5.0 5.1 5.2 5.6 5.5 5.4 5.3 5.3 5.3 5.4 5.5 5.6 5.6 5.6 5.5 5.6 5.7 5.8 6.1 5.9 5.7 5.7 5.7 5.7 5.8 5.9 5.8 5.7 5.5 5.5 5.7 5.9 5.8 5.9 5.8
5.5 5.9 5.5 6.3 7.7 7.7 7.3 7.2 7.1 5.9 5.7 5.4 5.6 6.2 5.4 5.4 5.3 5.3 5.3 5.2 5.3 5.2 5.4 5.4 5.6 5.6 5.7 5.5 5.5 5.6 5.8 5.8 5.7 5.5 5.7 5.6 5.5 5.6 5.5 5.6 5.7 5.6 5.5 5.5 5.6 5.5 5.1 5.1 5.9
5.5 5.4 6.2 7.4 7.4 7.9 7.8 7.1 6.8 6.2 6.0 5.8 5.8 6.5 6.3 5.7 5.2 5.3 5.2 4.9 4.9 5.0 5.4 5.5 5.6 5.6 5.5 5.5 5.5 5.6 5.6 5.5 5.3 5.4 5.4 5.5 5.5 5.5 5.8 5.7 5.8 5.7 5.7 5.8 5.7 5.5 5.6 5.3 5.1
5.8 5.9 6.2 7.3 7.1 7.9 7.4 7.3 6.7 6.4 6.3 5.7 6.3 6.6 6.2 5.8 5.4 5.6 5.1 4.8 4.8 5.2 5.3 5.6 5.6 5.6 5.5 5.5 5.6 5.6 5.5 5.3 5.1 5.4 5.4 5.5 5.5 5.6 5.5 5.4 5.5 5.6 5.6 5.5 6.0 5.2 4.9 5.2 5.0
6.5 6.5 6.5 7.3 6.4 7.6 7.6 7.7 7.1 6.8 6.4 6.2 6.7 6.8 6.6 6.1 5.8 5.6 5.3 4.7 5.1 4.7 5.3 5.6 5.7 5.5 5.5 5.6 5.5 5.5 5.4 5.0 5.6 5.5 5.2 5.7 5.3 4.7 5.0 5.1 5.3 5.5 5.5 5.0 5.0 5.4 5.4 5.2 5.0
7.3 7.0 7.3 7.8 7.3 8.2 7.7 7.5 7.9 7.3 6.8 6.6 6.9 6.8 7.0 6.8 6.3 5.8 5.6 5.1 5.2 4.7 4.7 4.8 5.5 5.5 5.5 5.5 5.4 5.4 5.5 4.8 5.2 4.9 5.0 5.3 5.3 5.7 5.5 6.0 5.9 5.7 5.6 6.0 5.2 5.4 5.1 4.9 4.4
7.4 7.4 7.4 7.1 8.4 8.2 7.3 7.8 7.3 7.3 6.6 6.4 7.0 6.7 6.8 6.9 6.2 6.0 5.7 5.2 5.1 4.9 4.8 4.6 5.4 5.5 5.5 4.9 5.3 5.4 5.0 5.1 4.9 5.1 4.9 5.6 5.8 5.3 5.7 5.5 5.5 5.7 5.6 5.0 5.3 4.6 5.2 5.0 5.1
7.7 8.0 8.1 7.4 8.8 8.8 8.2 8.0 7.4 7.5 6.9 6.3 6.5 6.5 5.6 5.6 5.9 6.0 5.9 5.3 5.3 5.0 5.0 4.7 5.2 5.5 5.7 5.8 5.5 5.3 4.8 4.9 4.8 5.4 5.4 5.1 5.3 5.8 5.6 5.4 5.5 5.5 5.3 5.2 5.5 4.9 4.9 5.5 5.1
7.8 8.4 8.4 7.2 8.9 9.0 8.8 8.0 8.0 6.9 7.3 6.5 6.0 6.0 5.7 5.8 5.6 5.8 5.8 5.5 5.3 5.1 5.1 4.8 5.5 5.6 5.8 5.8 5.7 5.8 5.4 5.3 5.1 5.3 5.6 5.5 5.7 5.6 5.5 5.4 5.6 5.8 5.9 5.8 4.8 4.8 4.5 4.9 4.9
7.4 8.0 7.8 8.7 9.1 9.1 8.7 9.3 8.9 8.3 7.3 6.6 6.1 6.0 5.8 5.8 6.0 5.7 5.6 5.8 5.4 5.2 5.1 5.2 5.5 5.9 6.0 5.8 5.8 5.7 5.7 5.5 5.4 5.7 5.8 5.8 5.8 5.6 5.4 5.9 5.2 5.2 4.7 5.4 5.3 4.9 4.7 4.6 4.5
7.3 7.5 7.7 8.9 9.1 9.2 8.8 9.1 8.8 8.3 8.0 6.9 6.6 6.2 6.0 6.0 5.9 5.9 5.8 5.7 5.5 5.4 5.3 5.6 5.6 6.2 5.9 5.9 5.8 5.7 5.7 5.8 5.7 5.7 5.9 5.8 5.9 5.8 5.8 5.6 5.4 5.7 4.9 5.2 5.3 5.2 5.0 4.9 4.6
7.9 7.8 9.1 9.1 9.3 9.2 9.3 9.1 9.0 8.9 7.9 7.1 6.8 6.6 6.3 6.0 6.4 6.0 5.8 5.7 5.5 5.5 6.1 6.0 6.1 6.2 6.1 5.9 5.8 5.7 5.7 5.7 5.7 5.7 5.6 5.9 5.9 5.8 5.8 6.0 5.6 5.8 5.4 5.7 5.9 5.7 5.6 5.4 4.7
8.0 9.0 8.9 9.4 9.3 9.2 9.3 9.1 9.2 8.5 8.1 7.2 6.9 6.6 6.7 6.3 6.2 6.1 5.9 5.5 5.3 5.7 6.6 6.4 6.3 6.3 6.3 6.3 6.1 5.9 5.9 5.8 5.8 5.8 5.7 5.9 5.9 5.9 6.0 5.8 5.4 5.2 5.7 6.0 5.7 5.9 5.9 5.7 5.2
7.6 8.7 9.6 9.3 9.6 8.9 9.5 9.3 9.4 9.0 8.7 7.5 7.7 7.1 6.8 6.6 6.4 6.1 6.3 5.7 5.9 6.4 6.7 6.6 6.5 6.4 6.5 6.4 6.1 5.9 5.8 6.0 6.0 5.9 5.8 5.9 6.0 6.2 6.1 6.0 5.7 5.4 5.8 5.9 5.7 5.6 5.7 5.2 5.1
7.5 8.0 9.0 9.6 9.5 8.9 9.3 9.0 9.6 8.9 8.4 8.8 7.9 7.5 7.2 6.9 6.7 6.6 6.9 6.5 6.4 6.4 6.7 6.7 6.7 6.6 6.4 6.3 6.1 6.1 6.0 6.0 6.2 6.1 6.1 6.1 6.2 6.1 6.1 6.0 5.8 5.7 5.4 5.6 5.5 5.5 5.7 5.5 5.0
7.3 7.6 8.6 9.5 9.7 9.6 9.5 9.6 9.4 9.3 9.3 8.5 8.3 8.0 7.3 7.1 6.9 6.5 6.4 6.3 6.6 6.8 6.8 6.7 6.5 6.5 6.3 6.3 6.3 6.4 6.3 6.1 6.0 6.2 6.2 6.1 6.1 6.2 6.2 6.0 6.0 5.8 5.9 5.8 5.6 5.6 5.6 5.6 5.4
7.2 8.0 8.4 9.2 9.7 9.7 9.8 9.6 9.7 9.4 9.5 9.1 8.7 8.2 7.4 7.1 7.1 6.9 6.6 7.0 6.8 6.8 6.9 6.8 6.6 6.4 6.3 6.3 6.3 6.2 6.4 6.3 6.3 6.2 6.1 6.1 6.3 6.3 6.3 6.2 6.2 6.2 5.9 5.9 5.7 5.8 5.8 5.8 5.8
7.9 8.5 9.4 9.1 9.6 9.8 9.5 9.7 9.6 9.5 9.3 9.5 9.3 9.0 8.2 8.1 7.3 7.1 6.8 6.4 6.3 6.1 6.8 6.7 6.5 6.4 6.4 6.3 6.4 6.5 6.3 6.2 6.2 6.2 6.3 6.2 6.6 6.5 6.5 6.5 6.4 6.3 6.1 6.0 5.7 5.8 5.9 5.9 5.9
8.0 8.4 9.4 9.4 9.2 8.4 8.8 9.6 9.5 9.7 9.7 9.4 9.5 8.9 8.8 8.7 8.1 7.4 6.9 6.6 6.7 6.6 6.9 7.0 6.7 6.6 6.7 6.7 6.5 6.6 6.3 6.1 6.1 6.1 6.2 6.4 6.5 6.7 6.5 6.6 6.6 6.4 6.4 6.3 6.0 5.9 5.9 5.9 5.9
7.6 7.8 8.0 8.0 9.0 9.5 8.9 9.1 8.2 9.3 9.6 9.9 9.7 9.3 9.2 8.9 8.5 7.7 7.0 6.8 7.1 6.9 7.0 7.3 7.4 6.9 6.8 6.7 6.6 6.4 6.4 6.2 6.1 6.1 6.2 6.2 6.2 6.4 6.7 6.5 6.7 6.6 6.5 6.4 6.2 6.1 6.0 6.1 6.0
7.9 7.5 8.2 9.0 9.6 9.8 9.7 9.1 9.0 9.2 9.3 9.6 9.7 9.7 9.5 9.1 8.8 7.6 7.2 6.9 7.2 7.0 7.1 7.2 7.4 7.2 6.9 6.9 6.5 6.3 6.3 6.2 6.4 6.4 6.3 6.3 6.2 6.2 6.3 6.5 6.6 6.6 6.7 6.6 6.6 6.3 6.2 6.3 6.2
8.1 8.3 8.4 9.1 9.1 9.4 9.7 9.7 9.2 9.1 9.4 9.5 9.7 9.8 9.7 9.3 9.0 7.9 7.6 7.2 7.7 7.3 7.2 7.1 7.1 7.0 6.9 6.6 6.5 6.4 6.5 6.4 6.4 6.4 6.5 6.5 6.3 6.2 6.3 6.8 6.7 6.8 6.9 7.0 7.0 6.8 6.4 6.4 6.4
8.0 8.9 8.6 8.5 8.8 9.6 9.5 9.7 9.7 9.3 9.1 9.5 9.6 9.4 9.5 9.5 9.1 8.3 7.8 7.4 8.0 7.7 7.2 7.1 7.1 7.0 7.1 7.0 6.9 6.9 6.7 6.6 6.6 6.7 6.6 6.7 6.6 6.6 6.2 6.7 6.9 6.8 7.1 7.2 7.4 7.3 6.9 6.6 6.7
8.3 8.2 8.2 8.2 8.4 9.0 9.3 9.5 9.3 9.5 9.4 9.4 9.4 9.4 9.2 9.7 9.5 8.5 8.1 7.8 7.2 7.8 7.6 7.3 7.2 7.2 7.2 6.9 6.9 6.9 6.9 6.8 6.8 6.7 6.7 6.7 6.8 6.7 6.9 6.9 7.0 7.1 7.2 7.4 7.5 7.6 7.4 7.1 6.9
Wind_Speed
14 15 6 2 3 5 4 5 4 1 6 11 8 12 15 10 2 5 15 12 17 16 16 12 14 17 17 16 18 17 16 15 17 14 14 14 14 13 13 13 12 12 11 11 10 10 9 8 7
16 13 3 3 3 2 4 16 8 9 17 17 18 13 13 7 8 16 16 19 19 18 18 16 14 16 17 17 17 16 15 16 14 14 13 14 13 12 13 12 11 11 11 11 10 9 8 6 6
8 12 1 3 3 4 4 8 9 19 16 14 8 12 7 6 18 22 20 23 20 17 20 18 16 16 17 18 16 15 15 14 14 12 14 13 12 11 11 11 11 11 11 10 9 8 6 6 5
6 2 5 4 2 8 6 14 17 14 15 21 19 13 10 16 19 16 23 18 17 11 23 19 17 17 18 17 16 15 14 13 13 12 12 11 11 12 11 11 11 11 10 10 10 8 6 6 6
7 2 2 6 12 7 16 13 11 14 17 14 18 14 15 18 20 26 22 21 16 12 23 19 17 18 17 16 15 14 13 12 12 11 10 9 9 9 10 10 10 10 10 10 9 8 7 6 6
5 2 3 4 9 10 12 17 17 19 20 18 23 20 7 9 22 20 23 20 16 15 22 20 17 17 16 15 14 13 12 11 10 10 9 8 7 8 8 10 10 9 9 9 8 7 7 6 7
11 4 2 12 10 12 12 8 13 14 21 21 20 18 13 21 21 23 20 17 17 16 20 20 19 17 15 14 13 12 11 10 9 8 7 7 8 7 8 9 9 8 8 7 7 6 5 3 5
14 12 5 12 12 9 17 9 14 16 23 23 26 10 19 23 25 18 17 18 14 15 17 16 18 17 15 14 12 11 10 8 7 7 6 6 5 7 8 8 8 7 6 6 5 4 4 4 4
15 11 13 6 10 8 17 19 18 19 20 12 12 29 25 27 23 19 16 16 18 11 17 17 18 17 15 14 12 11 9 8 7 6 5 8 9 11 14 9 9 5 2 4 3 3 3 5 6
16 3 8 15 7 9 11 16 17 12 15 25 28 29 25 24 19 17 20 15 14 11 18 16 14 15 17 16 14 12 11 11 8 6 7 12 10 4 5 9 8 3 1 0 5 2 6 7 7
21 7 12 22 18 15 5 16 16 15 16 24 26 29 28 27 21 18 18 17 15 16 15 17 14 15 15 14 12 11 13 12 15 16 13 7 6 8 7 6 11 21 16 7 6 3 9 8 12
18 18 18 19 20 6 15 13 7 12 20 27 25 28 30 26 20 20 19 20 18 18 18 19 17 10 11 14 11 12 10 13 18 18 16 6 6 7 11 6 14 19 12 10 13 8 11 5 8
18 19 20 15 25 26 28 9 3 5 22 27 27 28 28 26 23 19 18 18 19 17 17 18 16 10 6 4 10 7 6 6 10 12 11 6 5 5 11 10 14 10 14 3 4 6 4 7 8
18 16 15 21 8 27 23 19 20 14 22 27 28 27 27 28 27 24 23 20 18 18 16 17 16 11 6 4 2 1 4 6 3 10 13 8 8 6 5 4 5 8 11 9 2 4 4 2 3
21 16 16 16 14 8 10 25 16 12 18 25 26 25 23 22 30 24 23 22 19 16 14 16 16 12 7 6 2 3 4 7 5 0 13 4 4 2 4 7 2 8 8 7 3 5 2 3 4
22 16 17 20 16 13 10 14 26 26 25 24 25 24 22 23 23 21 23 20 18 17 15 16 15 17 12 8 5 5 8 6 5 8 11 8 2 2 8 4 5 15 5 9 3 4 2 3 3
23 17 23 20 19 17 16 15 14 24 22 25 22 22 22 20 21 19 19 18 18 16 16 13 12 17 16 9 8 8 10 6 7 6 9 13 10 6 5 7 4 18 4 0 3 2 3 4 4
19 21 19 24 22 22 19 17 15 19 22 25 24 23 21 23 22 20 19 17 17 16 15 13 10 11 15 9 6 7 7 5 9 5 4 14 10 9 8 13 13 12 1 2 3 4 4 3 3
23 21 24 21 21 19 21 18 16 18 14 24 21 22 22 22 21 20 19 18 17 17 17 16 13 10 12 10 10 8 8 6 4 5 7 12 10 10 9 8 6 6 7 4 4 3 1 1 2
28 25 24 23 21 19 22 20 19 21 22 20 25 25 23 23 23 22 21 21 19 20 18 17 15 12 11 9 9 7 5 6 6 5 6 8 9 6 7 6 2 2 2 4 4 4 1 2 3
29 27 24 21 12 11 19 17 21 18 26 12 26 25 25 24 23 23 24 23 21 20 19 18 17 14 12 12 7 6 6 4 5 6 5 6 9 11 9 6 5 4 5 4 1 3 1 1 1
27 28 27 25 19 17 23 15 17 18 15 21 22 17 24 25 22 22 22 21 22 20 20 19 18 16 14 12 11 10 9 8 6 5 5 7 15 13 13 11 9 5 3 7 5 4 3 2 3
26 27 25 26 19 19 18 15 15 20 20 24 23 23 23 25 25 25 25 24 22 21 21 19 19 17 15 16 11 11 10 8 7 5 8 7 10 12 11 12 8 5 4 6 6 6 4 1 1
26 23 24 24 18 18 22 20 20 18 23 19 22 24 24 25 26 27 25 22 20 19 20 19 20 19 17 17 17 11 14 10 8 8 6 6 7 7 7 12 9 7 5 4 5 5 7 4 2
24 22 14 17 17 16 22 21 15 17 23 22 24 21 23 22 24 24 26 23 22 22 22 21 22 21 20 19 19 18 12 15 10 7 9 8 8 9 11 9 9 8 7 5 5 5 5 6 3
28 26 15 24 18 17 22 23 21 22 21 19 25 25 23 23 23 24 26 24 23 22 23 23 23 22 21 21 20 18 16 10 12 10 8 8 8 9 12 13 11 10 11 9 5 6 5 6 5
24 26 24 21 20 16 18 28 24 23 24 21 18 23 24 24 22 25 26 24 24 22 23 24 24 24 23 24 19 18 17 15 14 14 9 7 9 6 7 15 12 12 10 9 8 6 8 5 8
30 22 22 17 21 21 19 22 19 24 23 24 18 16 22 23 22 24 24 25 24 24 22 22 21 24 24 23 21 19 19 18 15 13 12 12 8 10 3 14 13 12 12 10 10 8 7 8 7
21 22 25 20 17 15 15 14 16 26 24 20 23 17 15 21 22 22 23 24 24 23 22 22 21 21 21 20 20 19 18 19 18 14 14 11 12 7 10 9 13 13 12 12 10 10 9 10 9
28 27 25 13 22 16 14 11 10 3 24 19 15 22 17 14 20 21 22 23 22 24 23 23 22 21 21 20 19 20 19 19 19 18 17 15 13 13 11 10 11 12 13 13 14 14 13 11 13
Wind_Direction
173 183 202 126 250 223 227 134 217 258 75 95 81 111 79 103 126 143 138 136 144 140 138 133 124 121 120 121 121 115 111 110 100 105 96 94 85 86 88 89 91 93 95 95 93 92 94 93 84
181 182 173 259 259 323 305 136 146 112 109 87 95 112 83 82 94 131 126 144 154 141 149 133 126 127 127 125 119 117 114 105 110 102 99 91 91 82 89 93 91 93 91 92 95 95 96 103 101
249 189 252 220 204 179 228 131 170 117 105 116 94 57 49 93 114 142 130 144 162 151 135 128 131 132 132 124 122 118 116 114 109 109 101 98 92 84 89 88 88 87 87 89 92 93 97 98 103
187 238 256 272 172 240 186 163 97 118 109 111 121 88 71 108 128 137 135 139 166 117 130 134 136 135 128 124 123 121 121 118 115 109 106 104 99 94 93 87 88 86 85 84 85 88 92 93 102
203 304 46 310 281 199 104 131 114 126 106 118 105 103 112 132 130 134 137 157 127 159 126 137 140 131 127 127 127 126 125 120 117 117 115 109 103 97 93 98 97 94 91 87 85 87 90 98 110
181 154 205 234 277 117 119 113 137 130 123 107 111 116 117 163 138 128 148 157 152 152 141 139 139 133 133 132 131 131 128 124 123 123 123 124 123 119 111 106 106 105 104 96 91 88 87 105 126
231 139 252 290 274 100 106 83 108 121 114 118 131 111 133 137 139 143 152 145 163 171 136 144 142 138 138 135 137 137 134 134 129 127 135 149 153 145 129 118 112 106 97 94 86 80 76 83 152
236 264 234 260 270 123 89 134 98 101 96 117 135 138 153 141 150 142 160 158 160 157 142 148 143 151 153 147 146 145 145 141 139 158 166 185 204 172 150 144 127 122 123 119 107 125 163 155 210
264 275 304 318 31 310 143 96 102 105 133 124 96 135 143 145 155 142 154 169 172 152 150 156 156 155 153 142 154 153 154 161 174 190 197 248 225 191 162 140 133 132 137 113 124 164 224 201 220
228 94 294 299 176 227 345 114 126 131 116 104 115 119 145 153 146 157 168 171 154 177 158 161 158 159 161 160 152 172 176 180 192 185 218 223 246 232 191 141 128 130 145 328 171 178 216 275 199
244 146 247 278 274 225 55 137 143 138 125 125 137 142 154 155 153 170 165 159 167 185 166 162 156 165 173 136 172 182 188 186 124 249 218 284 274 168 77 106 107 16 311 275 242 188 238 222 240
236 152 193 270 277 85 37 292 353 156 130 130 145 151 150 159 156 168 164 177 181 180 168 163 150 166 179 154 176 197 192 194 165 199 192 194 45 148 139 199 125 187 235 233 222 227 205 253 3
236 180 168 268 262 132 166 159 264 148 140 131 147 159 158 164 163 168 174 183 180 193 166 152 149 158 179 201 188 218 185 191 148 144 163 158 199 153 171 197 172 181 171 294 121 41 106 50 3
239 235 243 213 207 153 162 166 157 235 131 138 155 167 168 170 171 167 177 190 201 174 168 146 147 154 170 216 275 286 217 193 229 170 155 190 91 264 144 130 107 148 154 212 290 94 54 95 308
248 252 232 255 229 208 204 175 152 140 147 149 160 167 177 177 171 170 178 186 196 165 168 150 147 157 171 208 230 270 256 232 191 343 136 164 176 57 20 29 53 128 202 175 127 109 127 44 224
248 225 255 230 222 223 198 219 141 162 176 154 162 171 177 180 182 175 177 184 176 167 167 160 172 163 175 187 191 242 261 231 247 196 142 163 214 108 65 10 359 313 156 181 159 139 156 201 241
234 232 227 238 206 222 208 237 187 168 163 159 164 174 177 183 187 179 183 177 169 168 165 168 176 164 166 186 185 214 245 264 247 228 166 168 173 176 164 124 357 290 319 77 171 72 183 219 195
224 221 231 229 202 207 210 224 182 191 169 166 167 172 179 185 191 175 186 182 171 165 161 169 172 163 162 175 196 193 239 234 262 232 241 160 174 180 194 159 189 216 174 335 53 65 41 33 24
242 224 221 234 224 207 221 219 171 180 185 188 167 173 176 186 186 174 189 182 177 169 167 172 176 181 165 173 186 210 205 205 216 258 207 176 175 190 191 220 181 223 153 179 203 79 144 328 30
233 243 234 231 206 211 216 208 215 194 194 171 176 182 174 183 182 180 186 183 189 176 172 173 180 180 176 179 183 201 205 211 201 213 218 185 178 227 202 227 166 313 220 111 111 118 5 127 119
223 232 244 234 167 266 225 228 222 192 220 191 176 183 173 185 184 183 182 189 184 175 176 177 179 184 183 180 186 192 206 228 190 204 206 183 198 203 225 217 170 232 241 141 153 150 140 118 130
222 224 240 251 242 208 204 211 215 219 174 182 191 185 177 180 183 180 183 191 183 182 177 175 181 187 185 192 188 195 202 206 222 190 199 185 196 218 191 206 191 200 225 150 201 179 96 175 166
225 220 227 247 257 252 220 222 215 210 216 182 191 179 193 178 181 177 184 189 192 181 177 176 180 185 189 193 213 193 200 213 203 215 205 202 190 202 208 185 198 181 213 194 184 121 147 172 179
222 229 222 230 246 247 245 234 213 215 206 208 190 186 191 180 181 177 180 183 193 182 177 177 177 186 191 191 207 213 197 209 210 202 217 196 177 191 215 187 185 179 218 231 171 160 153 215 298
214 216 217 220 215 231 235 246 250 237 195 206 185 197 190 183 178 175 174 180 187 186 179 180 180 187 191 194 198 212 212 200 225 210 213 199 195 189 199 204 171 180 200 235 188 177 175 177 216
210 212 218 214 218 220 230 230 232 250 260 224 183 187 191 182 178 176 174 179 184 191 184 183 183 186 189 197 198 204 213 199 211 227 205 220 209 202 184 193 184 181 186 211 221 170 195 178 191
199 215 217 226 225 231 222 221 247 226 241 249 230 190 185 179 184 177 171 179 181 187 188 188 184 188 191 196 196 198 202 214 205 217 218 205 222 235 179 182 187 186 186 198 210 202 190 199 184
228 198 215 228 237 234 227 225 215 219 218 223 231 211 185 180 179 172 175 179 182 187 189 190 188 190 192 194 198 200 198 204 213 201 224 216 211 224 187 177 186 185 191 201 197 197 214 195 193
209 219 208 227 233 240 251 242 223 200 203 211 203 211 210 186 173 174 175 180 184 183 185 192 194 189 195 198 199 202 203 202 206 214 204 219 215 216 221 187 188 187 191 197 201 207 201 200 204
211 215 211 217 218 241 264 275 17 283 184 195 213 188 211 208 175 174 174 181 179 182 187 192 193 197 195 197 200 203 202 204 205 209 212 203 211 208 221 197 193 192 195 199 204 203 215 209 200